Location: Zagreb
(45.8000°N, 16.0000°E)
Time: 15:23:58
(UTC+02:00)

Tiros 1 despin weight - Pass Details

Date: 15 August 2022
Orbit: 590 x 639 km, 48.2° (Epoch: 23 September)

Event Time Altitude Azimuth Distance (km) Brightness Sun altitude
Rises 17:31:24 0° 288° (WNW) 2,830 ? 25.4°
Reaches altitude 10° 17:33:51 10° 279° (W) 1,922 ? 25.0°
Maximum altitude 17:37:47 33° 215° (SW) 1,001 ? 24.3°
Drops below altitude 10° 17:41:42 10° 151° (SSE) 1,909 ? 23.6°
Sets 17:44:08 0° 142° (SE) 2,809 ? 23.2°
